Regional Weather Roundup
Issued by NWS

Home | Current Version | Previous Version | Graphics & Text | Print | Product List | Glossary On
Versions: 1 2 3 4 5 6 7 8 9 10 11 12 13 14 15 16 17 18 19 20 21 22 23 24 25 26 27 28 29 30 31 32 33 34 35 36 37 38 39 40 41 42 43 44 45 46 47 48 49 50
000
ASUS43 KBIS 261810
RWRND

NORTH DAKOTA REGIONAL WEATHER ROUNDUP
NATIONAL WEATHER SERVICE BISMARCK ND
100 PM CDT WED APR 26 2017

NOTE: "FAIR" INDICATES FEW OR NO CLOUDS BELOW 12,000 FEET WITH NO
SIGNIFICANT WEATHER AND/OR OBSTRUCTIONS TO VISIBILITY.


NDZ001>003-009>011-017-261900-
NORTHWEST NORTH DAKOTA

CITY           SKY/WX    TMP DP  RH WIND       PRES   REMARKS
WILLISTON      FAIR      45  23  42 E10       29.88F
6HR MIN TEMP:  22; 6HR MAX TEMP:  45;

MINOT          FAIR      43  22  43 N18G29    29.84F
MINOT AFB      SUNNY     41  21  45 N15G26    29.84F
$$

NDZ018>021-031>035-040>046-261900-
SOUTHWEST NORTH DAKOTA

CITY           SKY/WX    TMP DP  RH WIND       PRES   REMARKS
BISMARCK       CLOUDY    41  25  53 NE13      29.82F
6HR MIN TEMP:  31; 6HR MAX TEMP:  42;

DICKINSON      FAIR      42  22  44 N13       29.81F
GARRISON         N/A     39  23  52 N15G23    29.82F
6HR MIN TEMP:  24; 6HR MAX TEMP:  39;

HETTINGER ARPT PTSUNNY   38  24  57 N9G20     29.82F
$$

NDZ004>008-012>016-024-026-027-054-261900-
NORTHEAST NORTH DAKOTA

CITY           SKY/WX    TMP DP  RH WIND       PRES   REMARKS
GRAND FORKS    LGT SNOW  31  26  82 N18G26    29.80F WCI  19
GRND FRKS AFB  LGT SNOW  28  25  86 NE21G28   29.80F WCI  15
DEVILS LAKE    CLOUDY    31  24  75 NE21G26   29.83F WCI  18
$$

NDZ022-023-025-028>030-036>039-047>053-261900-
SOUTHEAST NORTH DAKOTA

CITY           SKY/WX    TMP DP  RH WIND       PRES   REMARKS
FARGO          FLURRIES  29  26  89 N24       29.73F WCI  15
6HR MIN TEMP:  29; 6HR MAX TEMP:  30; 6HR PCP:  0.06;

JAMESTOWN      CLOUDY    29  25  85 N15       29.77F WCI  18
$$





USA.gov is the U.S. government's official web portal to all federal, state and local government web resources and services.